,,,PA_Meas_PMT16A,,PR_Meas_QMR101_102,,RH_Meas_QMH101,,SR_Meas_QMS101,,TA_Meas_QMH101,,GenWind,,GenWind,
date,time,status,PA,status,PR,status,RH,status,SR,status,TA,status,DirAvg,status,SpdAvg,
2012-02-17, 00:00:04,VALID,1003.26,VALID,0,VALID,89.7385,VALID,0,VALID,24.7335,VALID,356,VALID,0.251172,
2012-02-17, 00:01:04,VALID,1003.29,VALID,0,VALID,89.5478,VALID,0,VALID,24.7529,VALID,356,VALID,0.359375,
2012-02-17, 00:02:04,VALID,1003.3,VALID,0,VALID,89.5249,VALID,0,VALID,24.7743,VALID,356,VALID,0.219141,
2012-02-17, 00:03:04,VALID,1003.33,VALID,0,VALID,89.4944,VALID,0,VALID,24.7919,VALID,356,VALID,0.0269531,
2012-02-17, 00:04:04,VALID,1003.34,VALID,0,VALID,89.3952,VALID,0,VALID,24.7705,VALID,356,VALID,0.189063,
2012-02-17, 00:05:04,VALID,1003.32,VALID,0,VALID,89.2655,VALID,0,VALID,24.8113,VALID,356,VALID,0,
2012-02-17, 00:06:04,VALID,1003.33,VALID,0,VALID,89.0901,VALID,0,VALID,24.8308,VALID,356,VALID,0,
2012-02-17, 00:07:04,VALID,1003.32,VALID,0,VALID,88.7086,VALID,0,VALID,24.8892,VALID,356,VALID,0,
2012-02-17, 00:08:04,VALID,1003.27,VALID,0,VALID,88.4416,VALID,0,VALID,24.9068,VALID,356,VALID,0,
2012-02-17, 00:09:04,VALID,1003.25,VALID,0,VALID,88.3272,VALID,0,VALID,24.9671,VALID,356,VALID,0,
2012-02-17, 00:10:04,VALID,1003.22,VALID,0,VALID,88.4416,VALID,0,VALID,25.006,VALID,356,VALID,0,
2012-02-17, 00:11:04,VALID,1003.17,VALID,0,VALID,88.4874,VALID,0,VALID,25.0274,VALID,356,VALID,0,
2012-02-17, 00:12:04,VALID,1003.17,VALID,0,VALID,88.6247,VALID,0,VALID,24.9866,VALID,356,VALID,0,
2012-02-17, 00:13:04,VALID,1003.15,VALID,0,VALID,88.7391,VALID,0.0815089,VALID,24.9652,VALID,356,VALID,0,
2012-02-17, 00:14:04,VALID,1003.15,VALID,0,VALID,88.9527,VALID,0,VALID,24.9866,VALID,356,VALID,0,
2012-02-17, 00:15:04,VALID,1003.14,VALID,0,VALID,89.1587,VALID,0,VALID,25.0079,VALID,356,VALID,0,
2012-02-17, 00:16:04,VALID,1003.11,VALID,0,VALID,89.1435,VALID,0,VALID,24.9282,VALID,356,VALID,0,
2012-02-17, 00:17:04,VALID,1003.1,VALID,0,VALID,89.2808,VALID,0,VALID,24.9087,VALID,356,VALID,0,
2012-02-17, 00:18:04,VALID,1003.1,VALID,0,VALID,89.2045,VALID,0,VALID,24.8697,VALID,356,VALID,0,
2012-02-17, 00:19:04,VALID,1003.04,VALID,0,VALID,89.3952,VALID,0,VALID,24.8697,VALID,356,VALID,0.619531,
2012-02-17, 00:20:04,VALID,1003.05,VALID,0,VALID,89.3723,VALID,0,VALID,24.8503,VALID,356,VALID,0.4875,
2012-02-17, 00:21:04,VALID,1003.02,VALID,0,VALID,89.502,VALID,0,VALID,24.8522,VALID,356,VALID,0.580859,
2012-02-17, 00:22:04,VALID,1003,VALID,0,VALID,89.5554,VALID,0,VALID,24.8327,VALID,356,VALID,0.377734,
2012-02-17, 00:23:04,VALID,1002.97,VALID,0,VALID,89.7767,VALID,0,VALID,24.7919,VALID,356,VALID,0.369141,
2012-02-17, 00:24:04,VALID,1002.97,VALID,0,VALID,89.647,VALID,0,VALID,24.7724,VALID,356,VALID,0.499219,
2012-02-17, 00:25:04,VALID,1002.94,VALID,0,VALID,89.853,VALID,0,VALID,24.7724,VALID,356,VALID,0.580469,
2012-02-17, 00:26:04,VALID,1002.97,VALID,0,VALID,89.9903,VALID,0,VALID,24.7743,VALID,356,VALID,0.273828,
2012-02-17, 00:27:04,VALID,1002.96,VALID,0,VALID,90.0666,VALID,0,VALID,24.7529,VALID,356,VALID,0.363281,
2012-02-17, 00:28:04,VALID,1002.98,VALID,0,VALID,90.0971,VALID,0,VALID,24.7529,VALID,356,VALID,0.24375,
2012-02-17, 00:29:04,VALID,1002.99,VALID,0,VALID,90.2344,VALID,0,VALID,24.7529,VALID,356,VALID,0.213672,
2012-02-17, 00:30:04,VALID,1003.02,VALID,0,VALID,90.0818,VALID,0.0815089,VALID,24.7529,VALID,356,VALID,0,
2012-02-17, 00:31:04,VALID,1003.02,VALID,0,VALID,90.0742,VALID,0,VALID,24.7121,VALID,356,VALID,0.0957031,
2012-02-17, 00:32:04,VALID,1003.03,VALID,0,VALID,90.1276,VALID,0,VALID,24.7335,VALID,356,VALID,0,
2012-02-17, 00:33:04,VALID,1003.04,VALID,0,VALID,89.914,VALID,0,VALID,24.7335,VALID,356,VALID,0,
2012-02-17, 00:34:04,VALID,1003.05,VALID,0,VALID,89.7233,VALID,0,VALID,24.7335,VALID,356,VALID,0.0316406,
2012-02-17, 00:35:04,VALID,1003.05,VALID,0,VALID,89.7614,VALID,0,VALID,24.7529,VALID,356,VALID,0.647656,
2012-02-17, 00:36:04,VALID,1003.03,VALID,0,VALID,89.7385,VALID,0,VALID,24.7724,VALID,356,VALID,0.431641,
2012-02-17, 00:37:04,VALID,1003.01,VALID,0,VALID,89.5631,VALID,0,VALID,24.7529,VALID,356,VALID,0.396875,
2012-02-17, 00:38:04,VALID,1002.98,VALID,0,VALID,89.5097,VALID,0,VALID,24.7724,VALID,356,VALID,0.490625,
2012-02-17, 00:39:04,VALID,1002.98,VALID,0,VALID,89.5783,VALID,0,VALID,24.7743,VALID,356,VALID,0.350781,
2012-02-17, 00:40:04,VALID,1002.95,VALID,0,VALID,89.6165,VALID,0,VALID,24.7548,VALID,356,VALID,0.0117188,
2012-02-17, 00:41:04,VALID,1002.9,VALID,0,VALID,89.6165,VALID,0,VALID,24.7335,VALID,356,VALID,0,
2012-02-17, 00:42:04,VALID,1002.86,VALID,0,VALID,89.5478,VALID,0,VALID,24.7335,VALID,356,VALID,0.464063,
2012-02-17, 00:43:04,VALID,1002.86,VALID,0,VALID,89.4791,VALID,0,VALID,24.7529,VALID,356,VALID,0.132813,
2012-02-17, 00:44:04,VALID,1002.89,VALID,0,VALID,89.6088,VALID,0,VALID,24.7724,VALID,356,VALID,0.386328,
2012-02-17, 00:45:04,VALID,1002.86,VALID,0,VALID,89.4868,VALID,0,VALID,24.7724,VALID,356,VALID,0.435547,
2012-02-17, 00:46:04,VALID,1002.85,VALID,0,VALID,89.3952,VALID,0,VALID,24.8132,VALID,356,VALID,0.442578,
2012-02-17, 00:47:04,VALID,1002.85,VALID,0,VALID,89.2045,VALID,0,VALID,24.8327,VALID,356,VALID,0.569141,
2012-02-17, 00:48:04,VALID,1002.81,VALID,0,VALID,89.029,VALID,0.0815089,VALID,24.8308,VALID,356,VALID,0.530469,
2012-02-17, 00:49:04,VALID,1002.79,VALID,0,VALID,88.8459,VALID,0,VALID,24.8503,VALID,355,VALID,0.494141,
2012-02-17, 00:50:04,VALID,1002.76,VALID,0,VALID,88.6476,VALID,0,VALID,24.8503,VALID,355,VALID,0.464844,
2012-02-17, 00:51:04,VALID,1002.74,VALID,0,VALID,88.3958,VALID,0,VALID,24.9106,VALID,353,VALID,0.683984,
2012-02-17, 00:52:04,VALID,1002.74,VALID,0,VALID,88.2509,VALID,0,VALID,24.9087,VALID,341,VALID,0.587891,
2012-02-17, 00:53:04,VALID,1002.69,VALID,0,VALID,87.8618,VALID,0,VALID,24.9671,VALID,331,VALID,0.448828,
2012-02-17, 00:54:04,VALID,1002.66,VALID,0,VALID,87.4422,VALID,0,VALID,25.006,VALID,353,VALID,0.663672,
2012-02-17, 00:55:04,VALID,1002.62,VALID,0,VALID,86.7709,VALID,0,VALID,25.0858,VALID,359,VALID,1.07734,
2012-02-17, 00:56:04,VALID,1002.61,VALID,0,VALID,85.947,VALID,0,VALID,25.1832,VALID,344,VALID,1.4957,
2012-02-17, 00:57:04,VALID,1002.58,VALID,0,VALID,85.4435,VALID,0,VALID,25.2981,VALID,352,VALID,0.948047,
2012-02-17, 00:58:04,VALID,1002.56,VALID,0,VALID,85.1154,VALID,0,VALID,25.376,VALID,338,VALID,0.608203,
2012-02-17, 00:59:04,VALID,1002.53,VALID,0,VALID,84.7263,VALID,0,VALID,25.4344,VALID,339,VALID,0.876562,
2012-02-17, 01:00:04,VALID,1002.51,VALID,0,VALID,84.4746,VALID,0,VALID,25.4928,VALID,332,VALID,0.840625,
2012-02-17, 01:01:04,VALID,1002.46,VALID,0,VALID,84.2686,VALID,0,VALID,25.5318,VALID,338,VALID,0.807031,
2012-02-17, 01:02:04,VALID,1002.43,VALID,0,VALID,84.0703,VALID,0,VALID,25.5902,VALID,339,VALID,0.496484,
2012-02-17, 01:03:04,VALID,1002.39,VALID,0,VALID,84.1389,VALID,0,VALID,25.5902,VALID,339,VALID,0.103516,
2012-02-17, 01:04:04,VALID,1002.35,VALID,0,VALID,83.9558,VALID,0,VALID,25.6292,VALID,332,VALID,0.501953,
2012-02-17, 01:05:04,VALID,1002.35,VALID,0,VALID,84.1542,VALID,0,VALID,25.6097,VALID,323,VALID,0.000390625,
2012-02-17, 01:06:04,VALID,1002.3,VALID,0,VALID,84.4593,VALID,0,VALID,25.6311,VALID,323,VALID,0.0910156,
2012-02-17, 01:07:04,VALID,1002.27,VALID,0,VALID,84.3678,VALID,0,VALID,25.5902,VALID,323,VALID,0.403516,
2012-02-17, 01:08:04,VALID,1002.26,VALID,0,VALID,84.3983,VALID,0,VALID,25.5727,VALID,323,VALID,0.353125,
2012-02-17, 01:09:04,VALID,1002.23,VALID,0,VALID,84.6424,VALID,0,VALID,25.5532,VALID,323,VALID,0.425781,
2012-02-17, 01:10:04,VALID,1002.22,VALID,0,VALID,85.1536,VALID,0,VALID,25.452,VALID,328,VALID,0.602344,
2012-02-17, 01:11:04,VALID,1002.19,VALID,0,VALID,85.3748,VALID,0,VALID,25.4169,VALID,332,VALID,0.727344,
2012-02-17, 01:12:04,VALID,1002.16,VALID,0,VALID,86.0156,VALID,0,VALID,25.337,VALID,334,VALID,0.508594,
2012-02-17, 01:13:04,VALID,1002.14,VALID,0,VALID,86.5191,VALID,0,VALID,25.2378,VALID,334,VALID,0.439844,
2012-02-17, 01:14:04,VALID,1002.15,VALID,0,VALID,86.8929,VALID,0,VALID,25.1813,VALID,334,VALID,0.304297,
2012-02-17, 01:15:04,VALID,1002.16,VALID,0,VALID,87.3049,VALID,0,VALID,25.1034,VALID,334,VALID,0.1625,
2012-02-17, 01:16:04,VALID,1002.2,VALID,0,VALID,87.6711,VALID,0,VALID,25.0663,VALID,334,VALID,0.220313,
2012-02-17, 01:17:04,VALID,1002.23,VALID,0,VALID,87.8313,VALID,0,VALID,25.0079,VALID,334,VALID,0.266016,
2012-02-17, 01:18:04,VALID,1002.23,VALID,0,VALID,88.022,VALID,0,VALID,24.9885,VALID,334,VALID,0.299609,
2012-02-17, 01:19:04,VALID,1002.25,VALID,0,VALID,88.0831,VALID,0,VALID,24.9282,VALID,334,VALID,0,
2012-02-17, 01:20:04,VALID,1002.27,VALID,0,VALID,88.3195,VALID,0,VALID,24.93,VALID,334,VALID,0,
2012-02-17, 01:21:04,VALID,1002.28,VALID,0,VALID,88.3501,VALID,0,VALID,24.93,VALID,334,VALID,0,
2012-02-17, 01:22:04,VALID,1002.26,VALID,0,VALID,88.2661,VALID,0,VALID,24.8697,VALID,334,VALID,0,
2012-02-17, 01:23:04,VALID,1002.24,VALID,0,VALID,88.2967,VALID,0,VALID,24.8892,VALID,334,VALID,0,
2012-02-17, 01:24:04,VALID,1002.23,VALID,0,VALID,88.2204,VALID,0,VALID,24.8716,VALID,334,VALID,0,
2012-02-17, 01:25:04,VALID,1002.2,VALID,0,VALID,88.1822,VALID,0,VALID,24.9106,VALID,334,VALID,0,
2012-02-17, 01:26:04,VALID,1002.19,VALID,0,VALID,88.0831,VALID,0,VALID,24.9106,VALID,334,VALID,0,
2012-02-17, 01:27:04,VALID,1002.18,VALID,0,VALID,88.2356,VALID,0,VALID,24.8892,VALID,334,VALID,0.432813,
2012-02-17, 01:28:04,VALID,1002.15,VALID,0,VALID,88.3653,VALID,0,VALID,24.8892,VALID,334,VALID,0.279687,
2012-02-17, 01:29:04,VALID,1002.07,VALID,0,VALID,88.4035,VALID,0,VALID,24.8892,VALID,334,VALID,0.398828,
2012-02-17, 01:30:04,VALID,1002,VALID,0,VALID,88.1136,VALID,0,VALID,24.9125,VALID,334,VALID,0.370313,
2012-02-17, 01:31:04,VALID,1001.94,VALID,0,VALID,88.4492,VALID,0,VALID,24.8892,VALID,353,VALID,0.333984,
2012-02-17, 01:32:04,VALID,1001.95,VALID,0,VALID,88.3424,VALID,0,VALID,24.8503,VALID,353,VALID,0.367188,
2012-02-17, 01:33:04,VALID,1001.96,VALID,0,VALID,88.5789,VALID,0,VALID,24.8327,VALID,353,VALID,0.412109,
2012-02-17, 01:34:04,VALID,1001.99,VALID,0,VALID,88.6171,VALID,0,VALID,24.7919,VALID,353,VALID,0.333203,
2012-02-17, 01:35:04,VALID,1002,VALID,0,VALID,88.9146,VALID,0,VALID,24.7529,VALID,353,VALID,0.397266,
2012-02-17, 01:36:04,VALID,1002.02,VALID,0,VALID,88.9909,VALID,0,VALID,24.7724,VALID,4,VALID,0.278125,
2012-02-17, 01:37:04,VALID,1002.04,VALID,0,VALID,89.029,VALID,0,VALID,24.7529,VALID,4,VALID,0.184375,
2012-02-17, 01:38:04,VALID,1002.03,VALID,0,VALID,89.1053,VALID,0,VALID,24.7743,VALID,4,VALID,0,
2012-02-17, 01:39:04,VALID,1002.03,VALID,0,VALID,89.1435,VALID,0,VALID,24.7724,VALID,4,VALID,0.198047,
2012-02-17, 01:40:04,VALID,1002.06,VALID,0,VALID,89.1282,VALID,0,VALID,24.7919,VALID,4,VALID,0.307813,
2012-02-17, 01:41:04,VALID,1002.04,VALID,0,VALID,88.9756,VALID,0,VALID,24.8113,VALID,3,VALID,0.240625,
2012-02-17, 01:42:04,VALID,1002.04,VALID,0,VALID,88.8154,VALID,0,VALID,24.8289,VALID,1,VALID,0.357031,
2012-02-17, 01:43:04,VALID,1002.04,VALID,0,VALID,88.6476,VALID,0,VALID,24.8892,VALID,1,VALID,0.433594,
2012-02-17, 01:44:04,VALID,1002,VALID,0,VALID,88.4874,VALID,0,VALID,24.9476,VALID,359,VALID,0.453906,
2012-02-17, 01:45:04,VALID,1002.03,VALID,0,VALID,88.2509,VALID,0,VALID,24.9866,VALID,358,VALID,0.482812,
2012-02-17, 01:46:04,VALID,1002.07,VALID,0,VALID,88.0068,VALID,0,VALID,25.0469,VALID,358,VALID,0.524219,
2012-02-17, 01:47:04,VALID,1002.09,VALID,0,VALID,87.8771,VALID,0,VALID,25.0839,VALID,357,VALID,0.550391,
2012-02-17, 01:48:04,VALID,1002.11,VALID,0,VALID,87.7626,VALID,0,VALID,25.1034,VALID,357,VALID,0.585547,
2012-02-17, 01:49:04,VALID,1002.17,VALID,0,VALID,87.8313,VALID,0,VALID,25.1034,VALID,357,VALID,0.338672,
2012-02-17, 01:50:04,VALID,1002.15,VALID,0,VALID,87.8466,VALID,0,VALID,25.1034,VALID,357,VALID,0.314063,
2012-02-17, 01:51:04,VALID,1002.16,VALID,0,VALID,87.9076,VALID,0,VALID,25.0839,VALID,357,VALID,0.275391,
2012-02-17, 01:52:04,VALID,1002.17,VALID,0,VALID,87.9,VALID,0,VALID,25.0839,VALID,357,VALID,0.266797,
2012-02-17, 01:53:04,VALID,1002.14,VALID,0,VALID,87.7169,VALID,0,VALID,25.1034,VALID,357,VALID,0,
2012-02-17, 01:54:04,VALID,1002.13,VALID,0,VALID,87.6406,VALID,0.0815089,VALID,25.1034,VALID,357,VALID,0.202344,
2012-02-17, 01:55:04,VALID,1002.14,VALID,0,VALID,87.6482,VALID,0,VALID,25.1248,VALID,357,VALID,0.211328,
2012-02-17, 01:56:04,VALID,1002.15,VALID,0,VALID,87.694,VALID,0,VALID,25.1229,VALID,357,VALID,0,
2012-02-17, 01:57:04,VALID,1002.16,VALID,0,VALID,87.5414,VALID,0,VALID,25.1229,VALID,357,VALID,0.114063,
2012-02-17, 01:58:04,VALID,1002.12,VALID,0,VALID,87.427,VALID,0,VALID,25.1229,VALID,357,VALID,0,
2012-02-17, 01:59:04,VALID,1002.14,VALID,0,VALID,87.3202,VALID,0,VALID,25.1423,VALID,357,VALID,0,
2012-02-17, 02:00:04,VALID,1002.17,VALID,0,VALID,87.4117,VALID,0,VALID,25.1637,VALID,357,VALID,0,
2012-02-17, 02:01:04,VALID,1002.18,VALID,0,VALID,87.4804,VALID,0,VALID,25.1637,VALID,357,VALID,0,
2012-02-17, 02:02:04,VALID,1002.15,VALID,0,VALID,87.6787,VALID,0,VALID,25.1423,VALID,357,VALID,0,
2012-02-17, 02:03:04,VALID,1002.15,VALID,0,VALID,88.3729,VALID,0,VALID,25.1618,VALID,357,VALID,0.382031,
2012-02-17, 02:04:04,VALID,1002.17,VALID,0,VALID,88.6705,VALID,0,VALID,25.1618,VALID,357,VALID,0.355859,
2012-02-17, 02:05:04,VALID,1002.17,VALID,0,VALID,88.7849,VALID,0,VALID,25.1423,VALID,75,VALID,0.559766,
2012-02-17, 02:06:04,VALID,1002.16,VALID,0,VALID,88.7925,VALID,0,VALID,25.0839,VALID,75,VALID,0.341016,
2012-02-17, 02:07:04,VALID,1002.13,VALID,0,VALID,88.6323,VALID,0,VALID,25.0255,VALID,75,VALID,0.328125,
2012-02-17, 02:08:04,VALID,1002.12,VALID,0,VALID,88.7925,VALID,0,VALID,24.9671,VALID,75,VALID,0,
2012-02-17, 02:09:04,VALID,1002.1,VALID,0,VALID,89.113,VALID,0,VALID,24.9476,VALID,75,VALID,0,
2012-02-17, 02:10:04,VALID,1002.07,VALID,0,VALID,89.0824,VALID,0,VALID,24.93,VALID,75,VALID,0,
2012-02-17, 02:11:04,VALID,1002.05,VALID,0,VALID,89.2045,VALID,0,VALID,24.8892,VALID,75,VALID,0,
2012-02-17, 02:12:04,VALID,1002.03,VALID,0,VALID,89.296,VALID,0,VALID,24.8503,VALID,75,VALID,0,
2012-02-17, 02:13:04,VALID,1002,VALID,0,VALID,89.5478,VALID,0,VALID,24.8503,VALID,75,VALID,0,
2012-02-17, 02:14:04,VALID,1001.97,VALID,0,VALID,89.6699,VALID,0.0815089,VALID,24.8503,VALID,75,VALID,0,
2012-02-17, 02:15:04,VALID,1001.92,VALID,0,VALID,89.6622,VALID,0,VALID,24.8113,VALID,75,VALID,0,
2012-02-17, 02:16:04,VALID,1001.92,VALID,0,VALID,89.6393,VALID,0,VALID,24.7724,VALID,75,VALID,0,
2012-02-17, 02:17:04,VALID,1001.86,VALID,0,VALID,89.7156,VALID,0,VALID,24.7529,VALID,75,VALID,0,
2012-02-17, 02:18:04,VALID,1001.83,VALID,0,VALID,89.7385,VALID,0,VALID,24.7335,VALID,75,VALID,0,
2012-02-17, 02:19:04,VALID,1001.81,VALID,0,VALID,89.7919,VALID,0,VALID,24.714,VALID,75,VALID,0,
2012-02-17, 02:20:04,VALID,1001.76,VALID,0,VALID,89.8606,VALID,0,VALID,24.7159,VALID,75,VALID,0,
2012-02-17, 02:21:04,VALID,1001.76,VALID,0,VALID,90.0284,VALID,0,VALID,24.675,VALID,75,VALID,0,
2012-02-17, 02:22:04,VALID,1001.71,VALID,0,VALID,90.1123,VALID,0,VALID,24.6556,VALID,75,VALID,0,
2012-02-17, 02:23:04,VALID,1001.67,VALID,0,VALID,90.3946,VALID,0,VALID,24.6556,VALID,75,VALID,0,
2012-02-17, 02:24:04,VALID,1001.64,VALID,0,VALID,90.3717,VALID,0,VALID,24.6148,VALID,75,VALID,0,
2012-02-17, 02:25:04,VALID,1001.63,VALID,0,VALID,90.4862,VALID,0,VALID,24.6361,VALID,75,VALID,0,
2012-02-17, 02:26:04,VALID,1001.65,VALID,0,VALID,90.6235,VALID,0,VALID,24.5972,VALID,75,VALID,0,
2012-02-17, 02:27:04,VALID,1001.62,VALID,0,VALID,90.7532,VALID,0,VALID,24.5972,VALID,75,VALID,0,
2012-02-17, 02:28:04,VALID,1001.63,VALID,0,VALID,90.8905,VALID,0,VALID,24.5777,VALID,75,VALID,0,
2012-02-17, 02:29:04,VALID,1001.68,VALID,0,VALID,91.0431,VALID,0,VALID,24.5582,VALID,75,VALID,0,
2012-02-17, 02:30:04,VALID,1001.72,VALID,0,VALID,91.188,VALID,0,VALID,24.5388,VALID,75,VALID,0,
2012-02-17, 02:31:04,VALID,1001.76,VALID,0,VALID,91.2719,VALID,0,VALID,24.5193,VALID,75,VALID,0,
2012-02-17, 02:32:04,VALID,1001.81,VALID,0,VALID,91.3864,VALID,0.0815089,VALID,24.5406,VALID,75,VALID,0,
2012-02-17, 02:33:04,VALID,1001.86,VALID,0,VALID,91.5084,VALID,0,VALID,24.5388,VALID,75,VALID,0,
2012-02-17, 02:34:04,VALID,1001.88,VALID,0,VALID,91.4855,VALID,0,VALID,24.5193,VALID,75,VALID,0,
2012-02-17, 02:35:04,VALID,1001.9,VALID,0,VALID,91.4626,VALID,0,VALID,24.4998,VALID,75,VALID,0,
2012-02-17, 02:36:04,VALID,1001.93,VALID,0,VALID,91.4626,VALID,0.0815089,VALID,24.4785,VALID,75,VALID,0,
2012-02-17, 02:37:04,VALID,1001.95,VALID,0,VALID,91.5237,VALID,0,VALID,24.4998,VALID,75,VALID,0,
2012-02-17, 02:38:04,VALID,1001.94,VALID,0,VALID,91.4855,VALID,0,VALID,24.4804,VALID,75,VALID,0,
2012-02-17, 02:39:04,VALID,1001.93,VALID,0,VALID,91.5313,VALID,0.0815089,VALID,24.4804,VALID,75,VALID,0,
2012-02-17, 02:40:04,VALID,1001.95,VALID,0,VALID,91.6,VALID,0,VALID,24.4609,VALID,75,VALID,0,
2012-02-17, 02:41:04,VALID,1001.91,VALID,0,VALID,91.6076,VALID,0,VALID,24.4396,VALID,75,VALID,0,
2012-02-17, 02:42:04,VALID,1001.9,VALID,0,VALID,91.722,VALID,0.0815089,VALID,24.4609,VALID,75,VALID,0,
2012-02-17, 02:43:04,VALID,1001.91,VALID,0,VALID,91.7373,VALID,0.0815089,VALID,24.4609,VALID,75,VALID,0,
2012-02-17, 02:44:04,VALID,1001.93,VALID,0,VALID,91.7297,VALID,0.0815089,VALID,24.4998,VALID,75,VALID,0,
2012-02-17, 02:45:04,VALID,1001.96,VALID,0,VALID,91.8059,VALID,0.0815089,VALID,24.498,VALID,75,VALID,0,
2012-02-17, 02:46:04,VALID,1002.02,VALID,0,VALID,91.8136,VALID,0.0815089,VALID,24.5369,VALID,75,VALID,0,
2012-02-17, 02:47:04,VALID,1002.07,VALID,0,VALID,91.7297,VALID,0,VALID,24.5972,VALID,75,VALID,0.711719,
2012-02-17, 02:48:04,VALID,1002.13,VALID,0,VALID,91.6381,VALID,0,VALID,24.6361,VALID,75,VALID,0.546484,
2012-02-17, 02:49:04,VALID,1002.23,VALID,0,VALID,91.5237,VALID,0,VALID,24.6361,VALID,75,VALID,0.319922,
2012-02-17, 02:50:04,VALID,1002.27,VALID,0,VALID,91.4932,VALID,0.0815089,VALID,24.6556,VALID,75,VALID,0.222266,
2012-02-17, 02:51:04,VALID,1002.3,VALID,0,VALID,91.5618,VALID,0.0815089,VALID,24.6556,VALID,75,VALID,0.271094,
2012-02-17, 02:52:04,VALID,1002.38,VALID,0,VALID,91.6,VALID,0,VALID,24.6732,VALID,75,VALID,0.166406,
2012-02-17, 02:53:04,VALID,1002.39,VALID,0,VALID,91.6534,VALID,0,VALID,24.675,VALID,75,VALID,0.159766,
2012-02-17, 02:54:04,VALID,1002.44,VALID,0,VALID,91.6839,VALID,0,VALID,24.675,VALID,75,VALID,0.339063,
2012-02-17, 02:55:04,VALID,1002.41,VALID,0,VALID,91.8059,VALID,0,VALID,24.675,VALID,75,VALID,0,
2012-02-17, 02:56:04,VALID,1002.42,VALID,0,VALID,91.9128,VALID,0,VALID,24.6945,VALID,75,VALID,0.378906,
2012-02-17, 02:57:04,VALID,1002.39,VALID,0,VALID,92.0272,VALID,0.0815089,VALID,24.6945,VALID,55,VALID,0,
2012-02-17, 02:58:04,VALID,1002.39,VALID,0,VALID,92.0424,VALID,0.0815089,VALID,24.714,VALID,55,VALID,0.351563,
2012-02-17, 02:59:04,VALID,1002.38,VALID,0,VALID,92.1416,VALID,0,VALID,24.714,VALID,55,VALID,0.0589844,
2012-02-17, 03:00:04,VALID,1002.34,VALID,0,VALID,92.1721,VALID,0,VALID,24.714,VALID,55,VALID,0.131641,
2012-02-17, 03:01:04,VALID,1002.32,VALID,0,VALID,92.2637,VALID,0,VALID,24.7335,VALID,55,VALID,0,
2012-02-17, 03:02:04,VALID,1002.29,VALID,0,VALID,92.3018,VALID,0,VALID,24.7937,VALID,55,VALID,0.0742188,
2012-02-17, 03:03:04,VALID,1002.32,VALID,0,VALID,92.3552,VALID,0.0815089,VALID,24.7724,VALID,55,VALID,0.00820312,
2012-02-17, 03:04:04,VALID,1002.36,VALID,0,VALID,92.4086,VALID,0,VALID,24.8308,VALID,55,VALID,0,
2012-02-17, 03:05:04,VALID,1002.32,VALID,0,VALID,92.2408,VALID,0.0815089,VALID,24.8697,VALID,55,VALID,0.224609,
2012-02-17, 03:06:04,VALID,1002.33,VALID,0,VALID,92.3476,VALID,0.0815089,VALID,24.93,VALID,55,VALID,0.303906,
2012-02-17, 03:07:04,VALID,1002.33,VALID,0,VALID,92.2027,VALID,0,VALID,24.8892,VALID,55,VALID,0,
2012-02-17, 03:08:04,VALID,1002.33,VALID,0,VALID,92.1569,VALID,0,VALID,24.8892,VALID,55,VALID,0,
2012-02-17, 03:09:04,VALID,1002.28,VALID,0,VALID,92.1187,VALID,0,VALID,24.8697,VALID,55,VALID,0.239063,
2012-02-17, 03:10:04,VALID,1002.26,VALID,0,VALID,92.2408,VALID,0,VALID,24.8503,VALID,86,VALID,0.7375,
2012-02-17, 03:11:04,VALID,1002.22,VALID,0,VALID,92.2942,VALID,0,VALID,24.8697,VALID,87,VALID,0.455469,
2012-02-17, 03:12:04,VALID,1002.2,VALID,0,VALID,92.2179,VALID,0,VALID,24.8522,VALID,87,VALID,0.25625,
2012-02-17, 03:13:04,VALID,1002.19,VALID,0,VALID,92.3476,VALID,0,VALID,24.8308,VALID,87,VALID,0.170703,
2012-02-17, 03:14:04,VALID,1002.16,VALID,0,VALID,92.3095,VALID,0,VALID,24.8327,VALID,87,VALID,0.322656,
2012-02-17, 03:15:04,VALID,1002.17,VALID,0,VALID,92.3018,VALID,0,VALID,24.7919,VALID,87,VALID,0.192969,
2012-02-17, 03:16:04,VALID,1002.14,VALID,0,VALID,92.3934,VALID,0,VALID,24.7919,VALID,87,VALID,0.270312,
2012-02-17, 03:17:04,VALID,1002.15,VALID,0,VALID,92.5383,VALID,0.0815089,VALID,24.7919,VALID,87,VALID,0.246484,
2012-02-17, 03:18:04,VALID,1002.12,VALID,0,VALID,92.5917,VALID,0,VALID,24.7919,VALID,87,VALID,0.483984,
2012-02-17, 03:19:04,VALID,1002.13,VALID,0,VALID,92.5841,VALID,0,VALID,24.8132,VALID,87,VALID,0.508203,
2012-02-17, 03:20:04,VALID,1002.13,VALID,0,VALID,92.7138,VALID,0,VALID,24.7724,VALID,87,VALID,0.31875,
2012-02-17, 03:21:04,VALID,1002.11,VALID,0,VALID,92.7214,VALID,0,VALID,24.7724,VALID,87,VALID,0.360156,
2012-02-17, 03:22:04,VALID,1002.11,VALID,0,VALID,92.7824,VALID,0,VALID,24.7529,VALID,87,VALID,0.221484,
2012-02-17, 03:23:04,VALID,1002.12,VALID,0.5,VALID,92.7672,VALID,0.0815089,VALID,24.7529,VALID,87,VALID,0.0183594,
2012-02-17, 03:24:04,VALID,1002.08,VALID,0,VALID,92.8282,VALID,0.0815089,VALID,24.7548,VALID,87,VALID,0.00898437,
2012-02-17, 03:25:04,VALID,1002.06,VALID,0,VALID,92.813,VALID,0.0815089,VALID,24.7121,VALID,87,VALID,0,
2012-02-17, 03:26:04,VALID,1002.07,VALID,0,VALID,92.8282,VALID,0,VALID,24.7335,VALID,87,VALID,0,
2012-02-17, 03:27:04,VALID,1002.09,VALID,0,VALID,92.8587,VALID,0.0815089,VALID,24.6945,VALID,87,VALID,0,
2012-02-17, 03:28:04,VALID,1002.13,VALID,0,VALID,92.9655,VALID,0,VALID,24.6945,VALID,87,VALID,0,
2012-02-17, 03:29:04,VALID,1002.13,VALID,0,VALID,93.0342,VALID,0.0815089,VALID,24.6964,VALID,87,VALID,0,
2012-02-17, 03:30:04,VALID,1002.16,VALID,0,VALID,93.1334,VALID,0.0815089,VALID,24.675,VALID,87,VALID,0.207422,
2012-02-17, 03:31:04,VALID,1002.24,VALID,0,VALID,93.202,VALID,0,VALID,24.675,VALID,87,VALID,0.262109,
2012-02-17, 03:32:04,VALID,1002.28,VALID,0,VALID,93.3012,VALID,0,VALID,24.6537,VALID,87,VALID,0.353516,
2012-02-17, 03:33:04,VALID,1002.3,VALID,0,VALID,93.4156,VALID,0,VALID,24.6732,VALID,87,VALID,0.512109,
2012-02-17, 03:34:04,VALID,1002.34,VALID,0.5,VALID,93.4996,VALID,0.0815089,VALID,24.6945,VALID,94,VALID,0.712109,
2012-02-17, 03:35:04,VALID,1002.39,VALID,0,VALID,93.469,VALID,0,VALID,24.675,VALID,114,VALID,0.580859,
2012-02-17, 03:36:04,VALID,1002.42,VALID,0,VALID,93.5072,VALID,0.0815089,VALID,24.6556,VALID,126,VALID,0.768359,
2012-02-17, 03:37:04,VALID,1002.45,VALID,0,VALID,93.5072,VALID,0.0815089,VALID,24.6361,VALID,128,VALID,0.695703,
2012-02-17, 03:38:04,VALID,1002.45,VALID,0,VALID,93.6445,VALID,0.0815089,VALID,24.6361,VALID,128,VALID,0.544141,
2012-02-17, 03:39:04,VALID,1002.51,VALID,0,VALID,93.6369,VALID,0,VALID,24.6185,VALID,128,VALID,0.634375,
2012-02-17, 03:40:04,VALID,1002.52,VALID,0,VALID,93.7361,VALID,0,VALID,24.638,VALID,128,VALID,0.537109,
2012-02-17, 03:41:04,VALID,1002.53,VALID,0,VALID,93.8886,VALID,0,VALID,24.6788,VALID,128,VALID,0.444141,
2012-02-17, 03:42:04,VALID,1002.54,VALID,0,VALID,93.9115,VALID,0,VALID,24.638,VALID,127,VALID,0.641797,
2012-02-17, 03:43:04,VALID,1002.56,VALID,0,VALID,93.9039,VALID,0,VALID,24.6166,VALID,112,VALID,0.913672,
2012-02-17, 03:44:04,VALID,1002.61,VALID,0,VALID,93.9497,VALID,0,VALID,24.6166,VALID,111,VALID,0.626172,
2012-02-17, 03:45:04,VALID,1002.62,VALID,0.5,VALID,93.9573,VALID,0,VALID,24.6574,VALID,104,VALID,0.774609,
2012-02-17, 03:46:04,VALID,1002.65,VALID,0,VALID,93.881,VALID,0,VALID,24.599,VALID,97,VALID,0.975391,
2012-02-17, 03:47:04,VALID,1002.63,VALID,0,VALID,93.9344,VALID,0,VALID,24.599,VALID,90,VALID,0.623828,
2012-02-17, 03:48:04,VALID,1002.63,VALID,0,VALID,93.9725,VALID,0,VALID,24.5777,VALID,91,VALID,0.715234,